TimeEST,TemperatureF,Dew PointF,Humidity,Sea Level PressureIn,VisibilityMPH,Wind Direction,Wind SpeedMPH,Gust SpeedMPH,PrecipitationIn,Events,Conditions,WindDirDegrees,DateUTC
12:52 AM,35.1,19.0,52,30.10,10.0,NNW,9.2,24.2,N/A,,Clear,330,2012-12-06 05:52:00
1:52 AM,34.0,19.9,56,30.15,10.0,NNW,8.1,23.0,N/A,,Mostly Cloudy,330,2012-12-06 06:52:00
2:52 AM,34.0,19.9,56,30.16,10.0,NNW,11.5,21.9,N/A,,Overcast,340,2012-12-06 07:52:00
3:52 AM,34.0,21.0,59,30.15,10.0,North,8.1,17.3,N/A,,Overcast,350,2012-12-06 08:52:00
4:52 AM,35.1,21.9,59,30.19,10.0,Variable,5.8,-,N/A,,Overcast,0,2012-12-06 09:52:00
5:52 AM,35.1,21.9,59,30.22,10.0,NW,8.1,16.1,N/A,,Overcast,320,2012-12-06 10:52:00
6:52 AM,34.0,21.9,61,30.25,10.0,NNW,8.1,-,N/A,,Overcast,330,2012-12-06 11:52:00
7:52 AM,34.0,23.0,64,30.27,10.0,Variable,4.6,-,N/A,,Overcast,0,2012-12-06 12:52:00
8:22 AM,35.6,23.0,60,30.26,10.0,NNW,5.8,-,N/A,,Overcast,340,2012-12-06 13:22:00
8:52 AM,35.1,24.1,64,30.28,10.0,North,9.2,-,N/A,,Overcast,350,2012-12-06 13:52:00
9:52 AM,36.0,24.1,62,30.30,10.0,North,8.1,-,N/A,,Overcast,350,2012-12-06 14:52:00
10:52 AM,37.9,25.0,60,30.29,10.0,Variable,3.5,-,N/A,,Mostly Cloudy,0,2012-12-06 15:52:00
11:13 AM,37.4,24.8,60,30.27,10.0,Variable,4.6,-,N/A,,Scattered Clouds,0,2012-12-06 16:13:00
11:52 AM,39.0,25.0,57,30.27,10.0,Variable,6.9,-,N/A,,Partly Cloudy,0,2012-12-06 16:52:00
12:52 PM,37.9,24.1,57,30.26,10.0,NNW,9.2,16.1,N/A,,Partly Cloudy,340,2012-12-06 17:52:00
1:52 PM,39.0,25.0,57,30.27,10.0,NNW,8.1,-,N/A,,Partly Cloudy,340,2012-12-06 18:52:00
2:52 PM,37.0,25.0,62,30.27,10.0,Variable,6.9,-,N/A,,Clear,0,2012-12-06 19:52:00
3:52 PM,36.0,24.1,62,30.30,10.0,Calm,Calm,-,N/A,,Clear,0,2012-12-06 20:52:00
4:52 PM,30.9,23.0,72,30.32,10.0,Calm,Calm,-,N/A,,Clear,0,2012-12-06 21:52:00
5:52 PM,28.9,23.0,78,30.31,10.0,Calm,Calm,-,N/A,,Clear,0,2012-12-06 22:52:00
6:52 PM,27.0,21.9,81,30.32,10.0,Calm,Calm,-,N/A,,Clear,0,2012-12-06 23:52:00
7:52 PM,26.1,21.9,84,30.31,10.0,Calm,Calm,-,N/A,,Clear,0,2012-12-07 00:52:00
8:52 PM,26.1,21.9,84,30.32,10.0,Calm,Calm,-,N/A,,Clear,0,2012-12-07 01:52:00
9:52 PM,25.0,21.9,88,30.32,10.0,Calm,Calm,-,N/A,,Clear,0,2012-12-07 02:52:00
10:52 PM,27.0,23.0,85,30.32,10.0,West,3.5,-,N/A,,Clear,270,2012-12-07 03:52:00
11:52 PM,27.0,21.9,81,30.32,10.0,West,3.5,-,N/A,,Clear,270,2012-12-07 04:52:00